Location: Chuathbaluk
(61.5726°N, 159.2454°W)
Time: 22:40:15
(UTC+00:00)

Max Valier Satellite - Pass Details

Date: 24 January 2021
Orbit: 488 x 504 km, 97.3° (Epoch: 25 February)

Event Time Altitude Azimuth Distance (km) Brightness Sun altitude
Exits shadow 04:52:38 11° 13° (NNE) 1,684 ? -17.2°
Drops below altitude 10° 04:52:48 10° 11° (N) 1,725 ? -17.2°
Sets 04:55:31 0° 349° (N) 2,618 ? -17.5°
